Location: Neu-Ulm
(48.3873°N, 10.0192°E)
Time: 22:31:42
(UTC+02:00)

ISS - Visible Passes

Search period start: 26 July 2017 00:00
Search period end: 05 August 2017 00:00
Orbit: 400 x 408 km, 51.6° (Epoch: 27 July)

Date Brightness Start Highest point End Pass type
(mag) Time Alt. Az. Time Alt. Az. Time Alt. Az.
26 Jul -2.7 00:51:53 10° WNW 00:55:02 45° N 00:56:42 23° ENE visible
26 Jul -1.5 02:28:27 10° WNW 02:29:15 16° WNW 02:29:15 16° WNW visible
26 Jul -3.9 22:22:43 10° WSW 22:25:58 83° SSE 22:29:14 10° ENE visible
26 Jul -2.8 23:59:28 10° W 00:02:38 45° N 00:05:20 13° ENE visible
27 Jul -2.2 01:36:08 10° WNW 01:37:55 29° WNW 01:37:55 29° WNW visible
27 Jul -3.0 23:07:02 10° W 23:10:13 51° N 23:13:25 10° ENE visible
28 Jul -3.1 00:43:49 10° WNW 00:46:58 51° N 00:46:58 51° N visible
28 Jul -3.4 22:14:35 10° W 22:17:49 64° NNW 22:21:03 10° ENE visible
28 Jul -2.8 23:51:25 10° WNW 23:54:35 45° N 23:56:08 25° ENE visible
29 Jul -1.4 01:27:59 10° WNW 01:28:45 16° WNW 01:28:45 16° WNW visible
29 Jul -2.7 22:58:59 10° WNW 23:02:08 45° N 23:05:18 10° ENE visible
30 Jul -2.8 00:35:37 10° WNW 00:37:58 42° NW 00:37:58 42° NW visible
30 Jul -2.9 22:06:31 10° W 22:09:41 48° N 22:12:52 10° ENE visible
30 Jul -3.2 23:43:15 10° WNW 23:46:28 55° NNE 23:47:12 43° ENE visible
31 Jul -0.9 01:19:48 10° WNW 01:19:49 10° WNW 01:19:49 10° WNW visible
31 Jul -2.9 22:50:51 10° WNW 22:54:01 47° N 22:56:29 15° ENE visible
01 Aug -2.2 00:27:23 10° WNW 00:29:05 28° WNW 00:29:05 28° WNW visible
01 Aug -2.8 21:58:23 10° WNW 22:01:33 44° N 22:04:42 10° ENE visible
01 Aug -3.9 23:34:59 10° WNW 23:38:15 79° NNE 23:38:22 77° NE visible
02 Aug -3.4 22:42:35 10° WNW 22:45:50 59° NNE 22:47:40 23° E visible
03 Aug -1.6 00:19:10 10° WNW 00:20:18 19° W 00:20:18 19° W visible
03 Aug -3.0 21:50:09 10° WNW 21:53:20 49° N 21:56:31 10° E visible
03 Aug -3.6 23:26:40 10° WNW 23:29:36 57° WSW 23:29:36 57° WSW visible
04 Aug -3.9 22:34:14 10° WNW 22:37:30 89° NNE 22:38:56 31° ESE visible
